Probability
0 0 0 0 0 0 0 0 0 0 0 0 0 0 0 1 1 1 1 6 12 16 17 19 18 16 13 13 13 11 9 7 5 3 1 0 1 2 3 2 1 0 0 0 0 0 0 0 0
0 0 0 0 0 0 0 0 0 0 0 0 0 0 0 0 0 1 2 6 12 16 16 18 18 15 11 11 11 10 9 8 6 4 1 0 1 2 3 3 2 1 0 0 0 0 0 0 0
0 0 0 0 0 0 0 0 0 0 0 0 0 0 0 0 0 1 2 6 12 15 15 17 17 13 9 8 8 8 7 7 7 6 3 2 2 3 3 3 3 2 1 0 0 0 0 0 0
0 0 0 0 0 0 0 0 0 0 0 0 0 0 0 0 0 1 2 6 12 15 17 19 18 12 8 7 7 6 5 5 7 7 6 5 5 5 4 3 3 3 1 1 2 2 2 1 0
0 0 0 0 0 0 0 0 0 0 0 0 0 1 1 1 1 2 2 5 11 16 18 21 19 13 8 6 6 6 4 4 5 6 7 7 8 7 6 4 4 4 3 3 4 3 3 2 1
1 1 0 0 0 0 0 0 0 0 0 0 0 1 1 1 1 2 3 5 12 18 19 20 19 14 9 8 7 6 3 2 3 4 5 7 8 9 7 6 6 5 4 3 4 3 3 2 1
0 0 0 0 0 0 0 0 0 0 0 0 0 0 0 1 2 3 3 7 13 18 19 18 18 15 12 11 9 6 3 1 1 2 3 4 5 6 7 7 7 5 4 3 3 4 3 2 1
0 0 0 0 0 0 0 0 0 0 0 0 0 0 0 1 3 4 6 10 15 18 19 18 19 18 16 13 9 6 3 1 1 2 2 2 3 4 4 6 6 6 5 4 4 5 4 2 2
0 0 0 0 0 0 0 0 0 0 0 0 1 1 2 2 3 4 7 11 15 16 16 16 17 18 16 13 10 7 3 1 1 1 1 1 1 2 3 4 6 6 6 4 3 4 4 2 2
0 0 0 0 0 0 0 0 0 0 0 1 2 3 4 3 2 3 5 9 13 14 14 13 13 15 15 13 10 8 4 1 0 0 0 0 0 1 1 2 4 5 5 4 3 3 2 1 1
0 0 0 0 0 0 0 0 0 0 0 1 2 2 3 3 1 2 3 6 10 13 13 12 11 13 15 14 11 9 6 3 1 1 0 0 0 1 1 1 2 2 3 3 2 2 1 0 0
0 0 0 0 0 0 0 0 0 0 0 0 1 1 2 2 1 1 3 5 8 12 14 13 12 13 15 16 13 10 8 6 4 2 1 1 1 2 2 2 2 2 2 1 1 1 0 0 0
0 0 0 0 0 0 0 0 0 0 0 0 1 1 1 1 0 1 2 4 6 10 13 14 14 15 16 16 13 11 10 8 7 4 3 2 3 3 3 2 3 4 3 2 2 1 0 0 0
0 0 0 0 0 0 0 0 0 0 0 0 1 1 1 0 0 1 2 3 4 7 11 13 14 16 18 16 13 12 11 10 9 6 4 3 3 3 1 1 1 3 4 4 3 1 0 0 0
0 0 0 0 0 0 0 0 0 0 0 0 0 1 1 1 1 1 2 2 1 3 7 10 11 14 17 15 13 11 11 11 10 7 4 3 3 3 1 1 0 1 3 4 2 0 0 0 0
0 0 0 0 0 0 0 0 0 0 0 0 0 1 2 2 2 2 2 1 0 1 3 5 7 9 11 12 12 11 9 9 9 8 5 3 3 3 3 2 1 0 1 2 1 0 0 0 0
0 0 0 0 0 0 0 0 0 0 0 0 0 1 3 3 3 1 1 0 0 1 1 1 3 4 6 9 10 9 7 6 8 8 5 3 3 2 2 2 1 0 0 0 0 0 0 0 0
0 0 0 0 0 0 0 0 0 0 0 0 0 1 4 4 2 1 0 0 1 1 1 1 2 3 4 7 8 8 6 5 6 6 5 3 2 1 1 1 0 0 0 0 0 0 0 0 0
0 0 0 0 0 0 0 0 0 0 0 0 0 1 3 4 2 0 0 1 2 2 1 0 1 1 3 5 7 7 6 5 4 4 4 3 2 1 0 0 0 0 0 0 0 0 0 0 0
0 0 0 0 0 0 0 0 0 0 0 0 0 0 2 3 2 1 1 2 3 2 1 0 0 0 1 2 5 5 4 3 2 2 3 3 2 1 0 0 0 0 0 0 0 0 0 0 0
0 0 0 0 0 0 0 0 0 0 0 0 0 1 2 3 2 1 2 3 3 2 1 0 0 0 0 1 3 3 2 1 1 1 2 3 2 0 0 0 0 0 0 0 0 0 0 0 0
0 0 0 0 0 0 0 0 0 0 0 0 0 1 2 3 2 1 1 2 1 1 0 0 0 0 0 1 2 2 1 0 0 1 2 2 1 0 0 0 0 0 0 0 0 0 0 0 0
0 0 0 0 0 0 0 0 0 0 0 0 0 1 2 2 1 0 0 0 0 0 0 0 0 0 0 1 2 2 1 0 0 0 1 1 1 0 1 1 1 1 1 0 0 0 0 0 0
0 0 0 0 0 0 0 0 0 0 0 0 0 0 1 1 0 0 0 0 0 0 0 0 0 0 0 1 2 2 1 0 0 0 0 0 0 0 1 2 2 2 2 1 0 0 0 0 0
0 0 0 0 0 0 0 0 0 0 0 0 0 0 0 0 0 0 0 0 0 0 0 0 0 0 0 1 2 2 1 0 0 0 0 0 0 0 0 1 2 3 3 1 0 0 0 0 0
0 0 0 0 0 0 0 0 0 0 0 0 0 0 0 0 0 0 0 0 0 0 0 0 0 0 0 1 2 1 0 0 0 0 0 0 0 0 0 0 1 2 3 2 1 0 0 0 0
0 0 0 0 0 0 0 0 0 0 0 0 0 0 0 0 0 0 0 0 0 0 0 0 0 0 0 1 1 1 0 0 0 0 0 0 0 0 0 0 0 1 2 2 1 0 1 1 1
0 0 0 0 0 0 0 0 0 0 0 0 0 0 0 0 0 0 0 0 0 0 0 0 0 0 0 0 0 0 0 0 0 0 0 0 0 0 0 0 1 1 1 1 1 1 1 2 2
0 0 0 0 0 0 0 0 0 0 0 0 0 0 0 0 0 0 0 0 0 0 0 0 0 0 0 0 0 0 0 0 0 0 0 0 0 0 0 0 1 2 1 1 1 1 1 1 1
0 0 0 0 0 0 0 0 0 0 0 0 0 0 0 0 0 0 0 0 0 0 0 0 0 0 0 0 0 0 0 0 0 0 0 0 0 0 0 0 1 1 1 1 1 0 0 0 0
Wind_Speed
8 9 6 2 3 5 9 7 5 1 1 2 4 4 4 4 4 5 3 4 9 10 10 9 10 10 10 10 9 9 9 8 8 8 7 8 8 8 8 8 9 8 8 9 9 9 9 10 10
8 6 3 3 4 7 9 8 6 2 1 3 3 2 2 4 6 7 4 5 9 10 10 8 10 10 10 9 9 9 9 8 8 8 7 8 8 9 8 8 8 8 8 8 8 8 9 9 9
9 6 3 3 6 8 6 2 3 2 2 2 1 1 2 3 5 5 4 6 8 9 9 9 11 11 10 9 9 9 9 8 8 7 7 8 8 8 8 8 8 8 7 7 8 8 8 8 8
4 3 4 5 11 10 6 2 1 2 2 1 1 2 3 4 4 5 6 6 8 8 9 10 11 11 10 9 9 9 8 8 7 7 7 7 7 7 7 6 7 7 7 7 7 7 7 7 7
3 3 5 8 12 10 6 2 1 2 2 3 3 2 3 4 7 8 6 6 8 8 8 10 11 10 10 9 9 9 8 8 8 7 7 8 8 7 6 6 6 7 6 7 7 6 7 7 7
3 4 6 10 11 9 6 4 4 4 3 2 2 2 3 4 6 6 5 5 7 7 8 9 10 10 9 9 9 9 8 8 7 7 7 7 7 7 7 6 6 6 6 6 6 6 6 6 6
4 4 8 10 9 7 6 2 3 3 3 2 1 1 4 4 5 5 5 5 7 7 7 7 7 8 8 9 8 8 8 8 7 6 6 6 6 6 6 6 6 6 5 5 5 5 5 5 5
3 4 8 9 9 8 3 2 2 2 2 1 1 1 3 5 5 5 4 5 6 6 7 6 6 6 6 5 7 8 7 7 7 6 6 5 4 5 5 5 5 5 5 4 5 4 5 4 3
4 5 8 9 7 4 1 2 2 1 1 2 1 1 5 9 7 5 4 4 4 5 5 6 6 5 5 5 7 7 7 7 6 5 5 3 2 2 3 4 4 4 4 4 4 4 3 3 2
4 6 9 6 4 3 3 3 3 2 3 3 1 3 6 7 7 6 5 5 5 5 5 5 5 5 5 5 5 4 4 4 3 2 3 2 2 1 2 4 4 4 4 3 3 3 3 2 1
5 8 7 6 5 4 5 5 5 4 6 5 3 4 6 6 6 6 6 5 6 6 5 5 5 5 5 4 3 2 2 2 3 3 2 2 2 2 2 1 2 2 2 2 1 1 1 1 1
8 9 8 6 4 4 5 6 6 7 7 4 3 2 4 6 7 7 7 6 5 6 6 5 5 5 5 4 3 3 2 2 2 2 3 2 1 2 1 1 1 1 1 1 1 0 0 1 1
10 9 8 7 6 6 7 8 7 9 7 5 3 2 4 5 5 5 5 5 5 6 7 6 6 6 5 4 3 3 3 3 2 2 2 2 2 2 1 1 1 1 1 1 1 0 1 0 0
6 6 8 8 8 7 9 10 9 10 7 6 5 5 5 5 6 5 5 5 5 6 6 6 6 6 5 4 3 3 3 3 3 2 2 3 2 2 2 1 1 1 1 1 1 0 1 0 0
5 7 9 10 10 7 6 10 11 10 8 7 7 6 5 5 5 5 5 5 5 5 6 7 6 6 6 5 4 3 3 3 3 2 3 2 2 2 2 2 1 1 1 1 1 1 1 1 1
6 7 7 7 8 7 7 11 7 7 8 8 7 6 6 6 6 5 5 4 5 5 5 6 6 6 6 5 4 3 3 3 3 3 2 2 2 2 2 2 1 1 1 1 1 1 1 1 1
6 7 8 7 6 6 8 9 6 6 7 7 7 6 6 6 6 5 6 6 6 6 6 5 5 7 6 5 4 4 3 3 3 3 3 3 3 3 2 2 2 1 1 1 1 1 1 1 1
5 7 7 8 5 6 9 10 7 5 7 7 7 6 6 6 6 5 5 6 5 5 5 5 4 5 5 5 4 3 3 3 3 3 3 4 3 3 2 2 2 2 1 1 1 2 1 1 1
8 8 9 9 6 6 9 11 9 6 7 7 7 6 6 6 4 4 5 5 5 5 5 5 5 4 4 4 4 4 4 3 3 3 4 4 3 3 3 2 2 2 1 1 2 2 2 1 1
8 9 9 7 5 6 9 12 10 9 9 9 8 7 5 4 3 3 4 4 4 5 5 5 5 5 5 4 4 4 4 3 3 3 3 4 4 4 3 3 2 2 2 2 2 2 2 1 1
8 8 7 7 7 7 8 10 9 7 7 7 6 5 4 4 3 3 4 4 4 4 5 5 5 5 5 4 3 3 3 2 2 3 3 3 4 4 4 3 3 3 3 3 2 3 3 2 0
8 6 7 6 5 5 3 6 6 6 6 6 5 3 3 3 3 2 3 3 3 4 4 4 5 5 5 5 5 6 5 4 4 4 3 3 4 4 4 4 3 3 2 3 3 2 2 3 1
4 5 6 6 6 7 5 6 6 6 6 5 4 2 2 2 3 3 3 3 3 3 3 4 4 4 5 5 6 5 4 3 3 4 4 4 3 4 4 4 4 3 3 3 3 2 2 2 2
3 3 4 4 3 6 7 6 6 3 4 3 2 2 2 2 2 3 3 3 2 2 2 3 4 4 4 5 6 5 5 4 4 5 5 4 2 2 4 4 4 3 3 3 3 3 3 2 2
1 0 1 1 3 6 4 5 5 2 2 2 2 2 2 2 2 3 3 2 3 3 2 3 4 4 4 5 5 5 5 5 5 5 5 4 3 2 4 4 3 3 3 3 3 3 3 3 3
4 3 3 3 3 3 2 5 3 0 1 2 3 2 2 2 2 3 2 2 2 3 3 3 4 4 4 5 5 5 5 4 3 4 4 4 4 3 4 4 3 3 3 4 3 3 3 3 3
2 3 2 2 3 3 4 3 3 1 2 2 2 2 2 2 2 3 2 2 2 3 3 3 3 3 4 4 4 4 5 4 4 4 3 3 3 3 4 4 4 3 3 3 3 2 3 3 3
3 1 1 2 2 4 4 4 3 0 1 1 1 2 2 2 2 2 2 2 2 2 2 3 3 3 3 4 3 3 4 4 4 4 4 4 4 4 4 5 4 4 4 4 4 3 3 3 3
2 2 2 3 3 3 3 2 2 1 1 1 1 1 1 1 2 2 2 1 1 1 2 2 3 2 3 4 3 3 4 4 4 4 4 4 4 4 5 5 4 4 4 4 4 4 4 4 4
3 3 3 2 4 3 3 4 2 1 2 2 1 0 1 1 1 1 1 1 1 1 1 2 2 3 3 3 4 4 3 3 4 4 4 4 4 4 4 4 4 4 4 4 4 4 4 4 4
Wind_Direction
283 260 244 240 231 230 239 238 247 245 297 22 20 7 6 18 27 103 149 110 111 123 127 131 128 127 123 118 116 115 112 109 106 104 105 105 106 107 107 105 101 98 94 90 86 84 82 79 78
275 262 243 231 232 232 236 222 229 241 114 57 33 4 7 63 74 104 119 110 117 121 125 127 124 123 123 121 119 116 114 111 107 104 103 104 107 105 103 103 101 97 94 92 89 88 87 83 79
269 255 238 226 231 234 240 185 162 156 111 113 111 22 11 57 88 109 123 124 118 118 123 124 124 122 121 121 122 118 117 116 111 108 107 107 107 104 100 100 100 96 92 90 88 88 90 88 85
256 229 241 240 241 243 256 268 73 129 126 134 160 119 88 50 66 101 121 124 117 117 120 125 126 123 121 122 121 121 119 117 114 109 107 108 108 106 103 103 103 99 94 91 89 88 87 88 87
240 234 226 236 245 251 258 251 264 239 186 185 191 163 97 84 89 106 123 127 120 118 119 130 129 127 124 122 121 120 121 118 113 109 104 101 104 103 103 101 100 97 97 97 92 90 91 86 84
236 234 228 232 239 241 244 242 235 242 222 199 206 199 129 118 111 121 129 127 121 122 122 130 133 130 128 126 122 118 117 116 114 111 108 105 101 104 103 100 99 97 94 96 96 92 95 92 87
244 246 244 247 251 248 239 229 235 238 244 229 235 202 137 126 121 125 127 124 121 124 125 128 135 134 131 127 124 122 118 114 112 110 107 106 105 106 111 104 104 104 101 98 99 97 99 97 91
268 268 251 247 248 256 262 263 261 264 276 312 299 202 138 129 117 119 119 119 121 126 130 135 136 136 133 130 128 124 121 116 112 108 104 106 110 107 110 108 109 114 113 110 110 102 103 101 98
260 246 244 244 245 260 296 285 279 325 294 275 319 41 108 123 124 127 131 129 130 128 133 139 142 139 135 135 133 128 123 119 116 115 115 113 103 104 107 109 111 120 123 115 117 119 121 119 119
222 236 245 273 295 291 306 298 290 270 250 246 198 103 126 137 148 158 166 164 158 151 147 145 146 142 140 141 135 139 135 134 131 130 129 120 106 105 114 117 120 123 128 126 130 149 154 154 170
217 237 259 283 303 299 293 286 280 265 253 243 223 168 154 160 170 179 184 182 174 163 156 152 150 144 142 136 141 139 137 139 135 130 123 118 114 111 104 112 122 136 139 134 138 172 190 185 156
240 248 256 268 286 277 272 276 273 264 266 282 276 203 171 183 190 191 191 188 175 167 163 157 153 150 147 144 146 145 141 133 130 135 134 121 111 108 106 118 125 138 129 126 121 162 218 200 175
244 253 261 267 273 271 272 263 266 262 264 272 260 220 206 202 206 200 192 186 177 174 168 164 159 158 152 149 154 151 148 140 137 133 143 132 125 124 122 120 123 129 119 121 112 56 29 358 84
258 266 265 262 257 254 256 260 251 252 245 242 231 220 212 209 206 202 197 188 184 179 170 166 162 159 154 154 155 153 149 143 137 139 143 139 138 136 127 113 110 113 117 124 126 135 83 28 46
270 272 269 253 243 240 248 254 237 239 239 234 227 218 214 214 206 204 198 191 186 181 173 166 167 160 160 161 160 152 151 144 142 146 142 139 133 135 131 125 121 132 127 121 99 68 75 73 74
258 255 254 244 230 223 223 250 236 228 235 234 229 220 218 215 211 204 192 186 184 177 174 173 170 161 162 160 157 152 153 148 147 146 144 145 135 130 121 119 112 108 120 120 125 119 89 63 80
235 246 253 260 234 233 231 251 240 229 234 235 233 226 220 218 214 203 189 187 185 178 169 170 167 165 164 159 157 154 151 149 146 143 144 143 138 137 126 122 119 106 112 117 134 115 109 88 67
247 257 263 262 250 258 253 257 252 245 240 240 240 235 219 218 216 198 187 181 172 168 162 162 164 162 161 157 154 149 149 154 148 144 148 143 143 138 122 123 122 111 105 110 113 116 96 102 97
282 280 276 276 283 279 266 265 259 247 248 246 242 239 227 220 210 183 167 165 157 156 162 163 164 165 161 160 163 162 167 161 151 150 147 150 149 140 130 127 128 126 130 139 128 112 103 87 85
268 272 277 283 290 288 278 271 263 245 241 237 236 235 230 223 197 166 159 158 160 163 165 163 168 174 172 169 169 166 158 155 149 145 146 149 148 146 149 146 149 147 140 137 132 123 119 109 91
261 259 271 283 304 277 277 274 248 245 239 241 235 228 220 212 201 178 168 165 165 171 172 172 168 176 173 163 147 145 131 127 143 155 157 156 153 153 148 152 150 154 156 164 159 152 139 151 235
262 270 275 281 288 272 253 279 252 230 235 233 225 218 209 200 177 175 161 153 166 171 167 166 168 178 174 167 164 170 170 171 173 165 161 158 159 158 154 156 154 157 157 162 168 162 153 150 170
266 291 281 269 264 277 253 254 263 208 224 221 206 198 179 167 166 172 159 149 152 152 158 165 165 169 169 171 169 171 171 164 148 154 158 161 165 166 160 162 161 167 167 170 166 155 152 160 166
298 306 290 261 244 256 234 228 266 226 227 212 185 165 146 129 135 144 139 128 128 132 152 161 167 170 172 175 171 172 174 165 159 163 165 163 160 169 168 167 168 171 170 172 174 167 167 175 168
258 246 312 255 221 242 228 225 249 241 175 152 133 123 119 112 115 119 120 126 139 146 165 178 176 175 177 179 176 178 175 175 175 170 168 165 167 178 182 175 174 174 174 174 173 168 174 177 176
223 209 216 237 243 284 278 237 251 239 85 97 106 108 118 115 119 125 133 137 146 154 165 180 181 179 180 178 175 177 177 180 178 172 169 172 175 178 173 174 174 178 177 175 174 175 180 180 180
231 226 255 282 289 276 249 247 262 190 96 77 99 124 132 124 120 136 139 140 149 155 165 177 171 171 177 172 169 177 176 178 174 170 165 164 165 167 170 173 176 182 178 175 174 181 183 176 182
268 289 139 209 243 258 248 243 255 265 143 84 114 129 125 116 117 124 144 149 156 159 163 167 172 180 175 165 170 174 173 175 171 162 169 168 167 167 171 176 179 185 185 182 180 184 188 180 187
220 250 234 242 251 253 269 265 3 85 92 107 95 119 137 133 136 131 128 143 146 141 151 166 176 180 173 169 169 172 175 171 165 165 169 170 174 172 173 176 181 188 190 187 182 186 185 189 189
243 223 205 220 256 248 266 268 359 72 89 73 41 120 136 122 115 117 113 116 128 146 155 172 182 183 181 171 171 175 171 164 164 166 167 167 172 174 170 171 184 190 190 186 182 187 187 189 191